Orbital Elements at Epoch 2459000.5 (2020-May-31.0) TDB
Reference: JPL 13 (heliocentric ecliptic J2000)
Element | Value | Uncertainty (1-sigma) | Units |
e | .02320501673557758 | 1.4515e-07 | |
a | 2.966292964250804 | 4.4404e-08 | au |
q | 2.897460086372738 | 4.3072e-07 | au |
i | 9.671436608898489 | 1.9642e-05 | deg |
node | 195.0596563590545 | 3.0932e-05 | deg |
peri | 143.7902976291539 | 0.00026261 | deg |
M | 145.5741294949749 | 0.00026106 | deg |
tp | 2458245.927123202801 (2018-May-07.42712320) | 0.0013526 | TDB |
period | 1866.03372858478 5.11 | 4.1901e-05 1.147e-07 | d yr |
n | .1929225578752147 | 4.332e-09 | deg/d |
Q | 3.03512584212887 | 4.5435e-08 | au |
|
| | Orbit Determination Parameters
Additional Information
|